Theta_e
330 331 332 333 336 337 346 347 350 348 348 344 345 344 342 343 344 345 347 341 346 349 347 347 347 348 350 348 342 347 349 348
329 328 329 331 332 336 344 350 349 352 352 355 349 346 347 346 346 346 345 345 345 345 345 344 344 346 349 348 345 346 349 347
329 328 328 328 329 331 333 341 349 349 350 347 348 342 351 347 346 345 341 342 347 346 347 345 348 348 351 350 344 347 350 347
329 328 328 328 328 328 330 336 337 340 340 340 345 347 348 348 346 347 345 346 348 347 347 343 347 348 352 349 345 346 348 346
329 329 329 327 327 328 328 329 334 333 346 343 344 347 347 348 348 347 346 346 347 344 350 350 346 347 348 339 352 348 348 350
330 332 332 333 332 326 327 328 329 330 344 341 342 351 348 349 349 348 347 348 347 352 351 346 341 352 347 353 352 353 351 351
327 329 330 331 332 332 327 329 330 329 343 346 347 350 351 351 351 350 349 349 348 350 353 352 352 350 351 349 350 350 349 348
327 327 330 330 330 331 329 327 328 329 331 340 345 344 336 352 354 354 350 349 350 350 352 349 346 344 343 346 345 342 343 342
330 328 329 330 330 331 331 329 330 331 348 342 337 332 330 350 353 352 351 351 350 352 352 351 347 344 343 341 344 344 343 342
331 331 336 331 331 331 332 339 339 342 348 346 336 330 342 348 349 348 347 346 347 348 350 349 349 348 347 345 344 344 343 342
331 332 332 330 331 329 330 332 334 337 345 332 343 343 344 346 347 344 342 342 342 344 348 349 349 349 348 346 346 346 344 342
329 330 334 332 329 328 327 336 332 332 339 333 341 345 344 344 342 338 335 337 340 342 343 344 346 345 345 344 344 341 341 342
327 331 333 328 328 326 331 337 331 332 338 335 338 340 341 339 336 334 333 336 337 339 340 341 343 343 342 340 338 341 341 341
329 329 332 326 328 331 332 330 331 331 338 339 340 339 338 335 331 331 333 333 334 335 336 337 337 337 336 337 338 339 337 339
330 331 327 326 327 327 327 330 330 330 338 332 337 335 334 330 329 328 329 329 330 331 329 329 329 332 334 332 331 333 333 333
324 327 326 326 326 326 326 327 327 331 334 336 335 334 331 329 326 324 323 323 322 322 321 318 317 317 322 323 321 323 323 323
323 326 327 326 326 324 325 326 327 331 333 335 334 332 330 327 325 324 323 321 320 319 316 314 314 313 313 313 313 313 315 316
326 328 328 327 326 324 324 324 325 328 333 333 333 329 328 326 326 324 322 321 320 318 316 315 312 311 311 315 317 314 312 314
326 327 325 327 325 323 322 324 324 326 330 332 331 329 327 325 323 320 318 316 316 312 311 308 308 311 309 311 315 315 315 315
Wind_Speed
13 14 13 13 10 16 5 7 6 1 5 2 20 15 24 29 35 31 17 26 25 32 29 26 30 28 31 22 16 17 15 15
13 12 15 16 7 10 5 3 5 6 7 5 9 15 21 24 35 34 30 37 38 32 30 35 34 25 30 23 19 18 19 15
10 10 13 11 12 10 13 8 4 8 4 11 3 10 16 26 36 38 35 34 31 37 38 36 33 33 27 23 19 20 23 17
12 13 16 16 16 17 10 11 10 10 3 12 16 10 16 30 37 38 38 34 28 27 44 42 29 29 35 23 23 26 24 20
13 8 8 13 17 14 15 15 15 9 5 17 17 18 22 20 35 35 38 36 29 32 34 36 23 27 31 18 29 21 27 23
5 8 11 15 18 17 16 12 15 13 15 16 16 14 15 20 33 41 38 33 30 19 19 22 30 24 27 19 23 20 20 20
4 11 10 15 20 20 18 16 17 13 5 9 9 10 11 12 18 37 35 30 38 23 26 30 32 25 30 29 25 18 14 15
14 9 12 15 18 21 18 20 17 16 8 16 13 20 38 8 9 21 26 26 25 25 19 23 24 22 18 21 21 17 24 20
13 7 14 9 10 14 15 9 5 12 10 9 10 18 3 8 5 10 15 15 18 19 14 17 20 23 27 27 23 21 17 17
7 10 11 9 17 17 20 20 19 25 17 17 16 24 18 12 8 4 15 15 12 15 19 16 14 13 15 17 18 14 12 12
1 3 17 1 8 12 14 18 16 17 15 12 17 14 7 9 11 12 13 13 12 16 15 19 19 19 20 19 19 18 14 10
1 5 1 12 15 22 19 6 23 11 18 10 9 2 3 8 14 13 9 11 15 15 15 16 20 24 22 20 18 16 15 11
11 3 3 9 18 13 7 7 16 20 5 13 8 4 13 16 15 10 8 14 13 14 16 19 24 25 19 16 15 16 15 15
6 4 3 13 15 0 2 4 9 14 8 5 18 18 17 15 10 9 13 15 13 14 14 13 13 15 16 15 13 14 16 17
7 3 4 7 11 8 8 6 8 9 3 13 11 15 12 13 9 14 16 17 18 19 20 16 14 13 18 18 17 17 16 16
8 10 11 9 6 6 7 7 8 8 12 9 14 13 14 11 18 19 18 20 19 19 19 18 15 14 13 15 14 13 12 12
6 6 8 5 6 4 5 6 7 6 6 6 13 14 17 22 19 19 18 16 16 15 15 14 12 12 12 11 10 10 10 9
3 8 4 6 4 1 3 4 5 5 7 5 9 12 16 24 22 20 20 20 19 17 14 13 11 11 11 11 9 9 8 8
4 2 0 3 1 1 3 3 2 1 6 7 7 9 16 18 18 21 19 17 17 16 15 14 12 11 10 13 16 13 9 13
Wind_Direction
196 237 251 206 215 244 168 127 274 346 13 333 175 187 186 205 193 208 214 206 221 172 174 180 198 192 186 186 188 189 189 196
194 193 259 273 267 220 154 156 300 218 177 304 177 198 182 197 192 203 182 190 216 195 196 197 188 188 186 188 183 185 191 199
155 204 235 221 253 263 267 182 141 281 156 167 232 306 187 189 192 194 206 209 211 190 199 195 183 176 181 175 174 183 188 193
255 207 216 250 225 242 258 252 241 233 267 172 155 274 251 192 199 192 204 206 212 200 196 190 174 179 179 175 182 185 193 187
258 238 238 216 247 251 251 271 279 298 135 181 189 200 191 204 187 192 198 206 210 200 168 174 178 180 187 249 193 197 191 195
7 273 273 302 317 249 255 244 260 258 146 182 186 175 193 174 178 191 198 196 195 166 185 181 217 185 177 176 188 183 188 196
278 299 285 284 294 304 249 256 248 267 132 171 173 169 186 175 153 165 186 175 185 188 161 155 171 178 176 190 195 186 190 214
286 261 246 271 251 287 244 245 258 272 285 160 110 80 357 156 121 121 174 182 176 187 181 186 186 183 170 188 206 219 222 241
299 358 339 263 297 285 293 252 286 284 96 91 64 84 295 312 188 114 129 130 154 167 173 186 196 199 199 214 216 220 230 243
282 358 252 24 10 18 357 17 6 46 62 88 123 152 169 187 198 142 145 156 147 132 163 174 187 187 183 194 208 213 210 223
62 338 295 226 24 13 6 327 8 37 81 92 100 98 87 152 165 158 142 145 167 184 152 174 164 173 182 193 184 174 184 188
318 297 293 318 319 317 339 53 346 35 82 40 359 113 159 137 128 121 134 156 156 159 177 178 155 160 170 173 189 186 183 187
277 151 90 264 314 351 67 354 339 360 84 148 162 300 143 134 134 145 157 143 151 160 166 168 178 185 180 173 167 173 192 202
348 318 117 190 45 22 338 298 333 346 25 110 105 132 130 139 148 152 138 133 140 149 151 162 174 178 174 175 174 179 183 192
143 246 127 74 95 82 16 21 345 342 36 104 115 128 137 137 143 136 131 130 134 134 125 122 130 156 163 150 151 158 161 163
323 134 130 107 102 65 32 20 345 5 9 103 125 132 137 132 124 118 117 122 123 123 122 119 118 116 121 121 122 125 137 144
293 187 138 162 92 30 26 9 5 28 42 93 134 133 146 137 135 135 130 126 123 121 123 123 124 130 130 130 134 132 128 131
337 78 118 114 118 60 348 354 349 8 56 80 139 141 166 156 155 155 145 141 137 128 124 119 122 128 136 135 122 129 138 134
38 134 124 100 157 274 298 304 350 345 113 108 138 164 171 167 162 152 146 140 132 121 121 120 116 114 127 145 141 149 171 151